Location: Eschertshofen
(49.3064°N, 11.5756°E)
Time: 14:29:36
(UTC+00:00)

ERS-1 Rocket - Pass Details

Date: 18 September 2020
Orbit: 753 x 757 km, 98.5° (Epoch: 27 October)

Event Time Altitude Azimuth Distance (km) Brightness Sun altitude
Exits shadow 20:57:23 46° 330° (NNW) 1,019 3.9 -32.0°
Drops below altitude 10° 21:00:56 10° 343° (NNW) 2,296 6.2 -32.4°
Sets 21:03:15 0° 345° (NNW) 3,226 7.2 -32.6°
